TimeCDT,TemperatureF,Dew PointF,Humidity,Sea Level PressureIn,VisibilityMPH,Wind Direction,Wind SpeedMPH,Gust SpeedMPH,PrecipitationIn,Events,Conditions,WindDirDegrees,DateUTC
12:53 AM,50.0,48.0,93,29.92,4.0,East,17.3,25.3,0.22,Rain,Light Rain,90,2013-10-15 05:53:00
1:07 AM,50.0,48.2,94,29.91,2.5,East,15.0,24.2,0.04,Rain,Heavy Rain,90,2013-10-15 06:07:00
1:29 AM,48.2,48.2,100,29.90,2.5,East,16.1,-,0.13,Rain,Heavy Rain,90,2013-10-15 06:29:00
1:36 AM,48.2,48.2,100,29.90,2.5,East,13.8,21.9,0.17,Rain,Heavy Rain,100,2013-10-15 06:36:00
1:53 AM,48.9,48.0,97,29.91,3.0,East,17.3,23.0,0.26,Rain,Rain,100,2013-10-15 06:53:00
2:16 AM,48.2,48.2,100,29.89,2.5,East,15.0,-,0.07,Rain,Heavy Rain,100,2013-10-15 07:16:00
2:30 AM,48.2,48.2,100,29.86,3.0,East,19.6,-,0.14,Rain,Heavy Rain,100,2013-10-15 07:30:00
2:38 AM,48.2,48.2,100,29.84,3.0,East,21.9,29.9,0.17,Rain,Rain,100,2013-10-15 07:38:00
2:53 AM,48.9,46.9,93,29.83,4.0,East,20.7,31.1,0.20,Rain,Rain,100,2013-10-15 07:53:00
3:53 AM,50.0,48.0,93,29.80,10.0,East,20.7,27.6,0.02,,Overcast,100,2013-10-15 08:53:00
4:40 AM,50.0,48.2,94,29.77,8.0,ESE,18.4,26.5,0.00,Rain,Light Rain,110,2013-10-15 09:40:00
4:53 AM,50.0,48.0,93,29.77,9.0,ESE,18.4,24.2,0.00,Rain,Light Rain,110,2013-10-15 09:53:00
5:11 AM,50.0,48.2,94,29.75,4.0,ESE,16.1,24.2,0.01,Rain,Light Rain,110,2013-10-15 10:11:00
5:53 AM,50.0,48.0,93,29.74,4.0,ESE,19.6,28.8,0.01,Rain,Light Rain,120,2013-10-15 10:53:00
6:51 AM,50.0,48.2,94,29.72,7.0,ESE,9.2,-,0.00,,Overcast,120,2013-10-15 11:51:00
6:53 AM,50.0,48.9,96,29.73,7.0,ESE,10.4,-,0.00,,Overcast,120,2013-10-15 11:53:00
7:00 AM,51.8,48.2,88,29.71,7.0,ESE,10.4,-,N/A,,Overcast,120,2013-10-15 12:00:00
7:12 AM,51.8,50.0,94,29.71,7.0,SE,9.2,16.1,N/A,,Overcast,130,2013-10-15 12:12:00
7:53 AM,51.1,50.0,96,29.71,6.0,ESE,13.8,-,N/A,,Overcast,120,2013-10-15 12:53:00
8:09 AM,51.8,50.0,94,29.70,4.0,SE,10.4,-,0.00,Rain,Light Rain,130,2013-10-15 13:09:00
8:23 AM,51.8,51.8,100,29.70,2.0,SE,10.4,-,0.01,Rain,Light Rain,130,2013-10-15 13:23:00
8:39 AM,51.8,51.8,100,29.69,4.0,ESE,11.5,-,0.01,Rain,Light Rain,120,2013-10-15 13:39:00
8:53 AM,52.0,51.1,97,29.70,3.0,SE,9.2,-,0.01,,Overcast,130,2013-10-15 13:53:00
9:20 AM,53.6,51.8,94,29.68,4.0,SE,9.2,-,N/A,,Overcast,130,2013-10-15 14:20:00
9:53 AM,54.0,52.0,93,29.69,5.0,SE,6.9,-,N/A,,Overcast,130,2013-10-15 14:53:00
10:07 AM,53.6,53.6,100,29.68,4.0,SE,8.1,-,N/A,,Overcast,140,2013-10-15 15:07:00
10:16 AM,53.6,53.6,100,29.68,4.0,SSE,8.1,-,N/A,,Overcast,150,2013-10-15 15:16:00
10:36 AM,53.6,53.6,100,29.68,5.0,South,10.4,-,0.00,,Overcast,170,2013-10-15 15:36:00
10:53 AM,54.0,53.1,97,29.69,8.0,South,6.9,-,0.00,,Overcast,180,2013-10-15 15:53:00
11:01 AM,53.6,53.6,100,29.68,10.0,South,8.1,-,N/A,,Overcast,180,2013-10-15 16:01:00
11:18 AM,53.6,51.8,94,29.68,10.0,South,9.2,19.6,N/A,,Overcast,180,2013-10-15 16:18:00
11:41 AM,53.6,51.8,94,29.68,2.5,SSW,8.1,16.1,0.00,,Light Drizzle,210,2013-10-15 16:41:00
11:45 AM,53.6,51.8,94,29.68,5.0,SSW,9.2,16.1,0.00,Rain,Light Rain,200,2013-10-15 16:45:00
11:53 AM,54.0,51.1,90,29.69,5.0,SSW,11.5,17.3,0.00,Rain,Light Rain,200,2013-10-15 16:53:00
12:10 PM,53.6,51.8,94,29.69,2.5,South,10.4,-,0.00,Rain,Light Rain,190,2013-10-15 17:10:00
12:23 PM,51.8,50.0,94,29.68,4.0,SSW,11.5,19.6,0.01,Rain,Light Rain,200,2013-10-15 17:23:00
12:35 PM,51.8,50.0,94,29.69,2.0,SSW,9.2,-,0.02,Rain,Light Rain,200,2013-10-15 17:35:00
12:53 PM,51.1,50.0,96,29.70,2.0,SSW,11.5,-,0.03,Rain,Light Rain,210,2013-10-15 17:53:00
1:23 PM,50.0,48.2,94,29.69,2.0,South,9.2,-,0.03,Rain,Light Rain,190,2013-10-15 18:23:00
1:44 PM,50.0,48.2,94,29.69,2.0,SSW,10.4,-,0.03,Rain,Light Rain,210,2013-10-15 18:44:00
1:53 PM,50.0,48.9,96,29.70,3.0,SSW,6.9,-,0.04,Rain,Light Rain,200,2013-10-15 18:53:00
2:00 PM,50.0,48.2,94,29.69,3.0,South,6.9,-,0.00,Rain,Light Rain,190,2013-10-15 19:00:00
2:26 PM,50.0,48.2,94,29.69,4.0,SSW,9.2,-,0.02,Rain,Light Rain,200,2013-10-15 19:26:00
2:53 PM,50.0,48.9,96,29.70,7.0,SSW,8.1,-,0.04,Rain,Light Rain,200,2013-10-15 19:53:00
3:53 PM,50.0,48.0,93,29.71,10.0,South,5.8,-,0.01,Rain,Light Rain,190,2013-10-15 20:53:00
4:05 PM,50.0,48.2,94,29.70,10.0,SSW,5.8,-,0.00,,Overcast,200,2013-10-15 21:05:00
4:53 PM,50.0,48.0,93,29.71,10.0,SW,5.8,-,0.00,,Overcast,220,2013-10-15 21:53:00
5:53 PM,50.0,48.0,93,29.72,5.0,SSW,4.6,-,0.00,,Light Drizzle,210,2013-10-15 22:53:00
6:34 PM,50.0,48.2,94,29.71,3.0,SSW,5.8,-,0.00,,Light Drizzle,210,2013-10-15 23:34:00
6:53 PM,48.9,48.0,97,29.73,3.0,SW,4.6,-,0.00,,Light Drizzle,230,2013-10-15 23:53:00
7:15 PM,48.2,48.2,100,29.72,3.0,SW,5.8,-,0.00,,Light Drizzle,220,2013-10-16 00:15:00
7:34 PM,48.2,48.2,100,29.73,5.0,SW,5.8,-,0.00,,Light Drizzle,230,2013-10-16 00:34:00
7:49 PM,50.0,48.2,94,29.74,4.0,SW,5.8,-,0.00,,Light Drizzle,230,2013-10-16 00:49:00
7:53 PM,50.0,48.9,96,29.75,4.0,West,5.8,-,0.00,,Light Drizzle,260,2013-10-16 00:53:00
8:05 PM,50.0,48.2,94,29.74,2.5,NW,9.2,-,0.00,Rain,Light Rain,320,2013-10-16 01:05:00
8:13 PM,50.0,48.2,94,29.74,2.0,NNW,9.2,-,0.00,,Light Drizzle,330,2013-10-16 01:13:00
8:40 PM,50.0,48.2,94,29.75,2.5,NNW,13.8,18.4,0.01,,Light Drizzle,330,2013-10-16 01:40:00
8:48 PM,50.0,48.2,94,29.76,3.0,NNW,10.4,-,0.01,,Light Drizzle,340,2013-10-16 01:48:00
8:53 PM,50.0,48.9,96,29.77,3.0,NNW,13.8,-,0.01,,Light Drizzle,330,2013-10-16 01:53:00
9:22 PM,48.2,48.2,100,29.77,3.0,NNW,13.8,20.7,0.00,Rain,Light Rain,330,2013-10-16 02:22:00
9:53 PM,48.9,48.0,97,29.79,9.0,NNW,15.0,24.2,0.00,,Light Drizzle,340,2013-10-16 02:53:00
10:53 PM,48.0,46.0,93,29.81,4.0,North,16.1,23.0,0.00,Rain,Light Rain,350,2013-10-16 03:53:00
10:56 PM,48.2,46.4,93,29.80,3.0,North,16.1,23.0,0.00,Rain,Light Rain,350,2013-10-16 03:56:00
11:02 PM,46.4,46.4,100,29.81,4.0,North,15.0,20.7,0.00,Rain,Light Rain,350,2013-10-16 04:02:00
11:05 PM,46.4,46.4,100,29.81,4.0,North,17.3,21.9,0.00,Rain,Light Rain,350,2013-10-16 04:05:00
11:12 PM,46.4,46.4,100,29.81,4.0,North,13.8,-,0.00,Rain,Light Rain,350,2013-10-16 04:12:00
11:31 PM,46.4,46.4,100,29.81,4.0,North,11.5,20.7,0.00,Rain,Light Rain,350,2013-10-16 04:31:00
11:53 PM,46.9,46.0,97,29.83,4.0,North,12.7,-,0.00,Rain,Light Rain,350,2013-10-16 04:53:00